Flag for U.S.A. Weather past 2 weeks in Dallas, Texas, U.S.A.

Now
76 °F

Mostly cloudy.


Feels Like: 77 °F
Forecast: 78 / 98 °F
Wind: 6 mph from West

Location: Dallas Love Field

Current Time: Jul 24, 2014 at 1:28:49 AM

Latest Report: Jul 24, 2014 at 12:53 AM


Visibility: 10 mi

Pressure: 29.98 "Hg

Humidity: 77%

Dew point: 68 °F

Location of DallasLocation

Historic Weather in Dallas — Graph

°F

Dallas temperature yesterday

Maximum temperature yesterday: 94 °F (at 2:53 PM)
Minimum temperature yesterday: 75 °F (at 11:53 PM)
Average temperature yesterday: 85 °F

Past Weeks' High & Low Weather Summary

 TemperatureHumidityPressure
High100 °F (Jul 13, 3:53 PM)93% (Jul 17, 9:53 AM)30.15 "Hg (Jul 17, 9:53 AM)
Low65 °F (Jul 18, 6:53 AM)22% (Jul 15, 3:53 PM)29.85 "Hg (Jul 16, 7:53 PM)
Average83 °F59%29.99 "Hg
* Reported Jul 8 11:53 PM — Jul 23 11:53 PM, Dallas, Weather by CustomWeather, © 2014

Note: Actual official high and low records may vary slightly from our data, if they occured in-between our weather recording intervals... More about our weather records

Advertising

Dallas weather history for previous 24 hours

 ConditionsComfort  
Time TempWeatherWind HumidityBarometerVisibility
11:53 PM
Jul 23
75 °FPartly cloudy.No wind85%30.01 "Hg10 mi
10:53 PM78 °FThunderstorms. Partly cloudy.13 mph69%30.07 "Hg10 mi
9:53 PM78 °FOvercast.13 mph66%30.06 "Hg10 mi
8:53 PM82 °FOvercast.22 mph63%30.03 "Hg10 mi
7:53 PM92 °FOvercast.12 mph47%29.99 "Hg10 mi
6:53 PM93 °FOvercast.7 mph44%29.98 "Hg10 mi
5:53 PM94 °FOvercast.5 mph43%29.98 "Hg10 mi
4:53 PM94 °FBroken clouds.N/A43%29.98 "Hg10 mi
3:53 PM94 °FPassing clouds.8 mph43%30.00 "Hg10 mi
2:53 PM94 °FPassing clouds.8 mph43%30.04 "Hg10 mi
1:53 PM92 °FPassing clouds.7 mph46%30.05 "Hg10 mi
12:53 PM92 °FPassing clouds.7 mph46%30.06 "Hg10 mi
11:53 AM90 °FPassing clouds.5 mph48%30.07 "Hg10 mi
10:53 AM89 °FScattered clouds.3 mph48%30.09 "Hg10 mi
9:53 AM85 °FScattered clouds.No wind57%30.09 "Hg9 mi
8:53 AM83 °FPartly sunny.3 mph63%30.09 "Hg7 mi
7:53 AM80 °FScattered clouds.3 mph71%30.08 "Hg6 mi
6:53 AM76 °FPassing clouds.No wind80%30.06 "Hg8 mi
5:53 AM77 °FClear.No wind77%30.06 "Hg10 mi
4:53 AM77 °FClear.3 mph77%30.05 "Hg10 mi
3:53 AM79 °FClear.5 mph72%30.05 "Hg10 mi
2:53 AM81 °FClear.6 mph65%30.04 "Hg10 mi
Weather by CustomWeather, © 2014

See weather overviewHow to use our weather pages